Date,TemperatureHighF,TemperatureAvgF,TemperatureLowF,DewpointHighF,DewpointAvgF,DewpointLowF,HumidityHigh,HumidityAvg,HumidityLow,PressureMaxIn,PressureMinIn,WindSpeedMaxMPH,WindSpeedAvgMPH,GustSpeedMaxMPH,PrecipitationSumIn
2013-2-1,15.7,10.3,5.1,10.1,4.2,-0.4,83,76,69,30.46,30.15,25,13,38,0.00
2013-2-2,26.6,22.0,15.7,23.9,18.7,9.8,92,87,76,30.33,30.03,18,9,27,0.00
2013-2-3,23.2,17.4,11.2,20.2,13.7,7.8,90,85,79,30.15,30.01,19,9,25,0.00
2013-2-4,36.1,27.2,18.8,32.5,22.6,14.8,92,83,73,30.14,29.83,20,6,27,0.00
2013-2-5,34.5,28.1,21.2,31.6,25.1,19.2,93,88,81,30.06,29.84,19,7,25,0.00
2013-2-6,35.9,31.5,28.7,30.7,25.2,21.6,95,78,64,30.29,30.06,12,5,15,0.00
2013-2-7,51.6,39.6,31.0,40.1,33.1,27.4,94,78,55,30.23,29.81,11,6,19,0.15
2013-2-8,41.1,34.5,32.5,39.5,32.4,28.6,99,92,84,30.15,29.82,19,14,27,0.02
2013-2-11,36.8,34.8,31.7,30.7,28.5,26.5,84,78,69,30.05,29.91,28,17,33,0.00
2013-2-12,41.2,32.4,28.4,32.9,27.5,24.7,91,82,66,30.15,29.97,14,8,22,0.00
2013-2-13,42.3,35.7,26.8,32.2,28.7,24.5,92,76,64,29.97,29.80,14,6,20,0.00
2013-2-14,46.7,38.1,32.8,39.4,33.5,29.1,93,84,71,30.00,29.80,23,14,30,0.00
2013-2-15,34.4,30.5,24.5,30.6,26.3,19.1,92,85,67,30.19,29.99,17,6,21,0.00
2013-2-16,25.3,21.7,17.7,21.7,15.1,8.4,87,76,57,30.19,30.12,18,10,23,0.00
2013-2-17,29.4,20.3,9.7,17.7,12.5,6.6,88,73,49,30.30,30.18,10,5,15,0.00
2013-2-18,55.5,40.5,25.7,43.2,30.1,15.7,90,66,51,30.20,29.58,35,17,44,0.08
2013-2-19,45.4,26.4,20.7,42.6,21.6,13.0,94,82,71,30.16,29.56,33,24,39,0.07
2013-2-20,22.9,18.1,11.7,15.8,11.8,6.2,83,76,69,30.38,30.16,23,11,39,0.00
2013-2-21,26.7,23.5,18.9,23.9,18.9,14.6,92,82,77,30.41,30.07,23,10,27,0.00
2013-2-22,35.2,32.5,26.5,33.9,30.6,23.5,96,93,87,30.09,29.89,17,9,22,0.08
2013-2-23,33.2,28.9,24.3,29.3,24.2,21.3,91,83,73,30.03,29.96,14,9,19,0.00
2013-2-24,37.3,29.5,22.4,27.4,23.7,19.3,89,79,65,30.19,30.00,11,6,15,0.00
2013-2-25,42.6,33.4,25.7,31.2,26.8,21.8,92,77,60,30.22,29.93,15,7,20,0.00
2013-2-26,40.4,35.4,32.5,39.6,32.5,27.4,100,89,78,29.93,29.41,27,6,34,0.60
2013-2-27,40.5,40.0,39.2,39.7,39.0,37.9,97,96,95,29.51,29.48,0,0,34,0.00
2013-2-28,38.0,34.9,32.5,35.3,32.5,29.8,100,91,84,30.00,29.79,12,9,34,0.01